Time,TemperatureF,DewpointF,PressureIn,WindDirection,WindDirectionDegrees,WindSpeedMPH,WindSpeedGustMPH,Humidity,HourlyPrecipIn,Conditions,Clouds,dailyrainin,SoftwareType,DateUTC
2013-10-31 00:01:00,57.0,55.3,30.25,SSW,202,0.0,0.0,94,0.00,,,0.00,Weather View 32 v70,2013-10-31 04:01:00,
2013-10-31 00:02:00,57.0,55.3,30.25,SSW,205,0.0,0.0,94,0.00,,,0.00,Weather View 32 v70,2013-10-31 04:02:00,
2013-10-31 00:07:00,57.0,55.3,30.25,SSW,206,0.0,0.0,94,0.00,,,0.00,Weather View 32 v70,2013-10-31 04:07:00,
2013-10-31 00:12:00,56.9,55.2,30.25,SSW,211,0.0,0.0,94,0.00,,,0.00,Weather View 32 v70,2013-10-31 04:12:00,
2013-10-31 00:17:00,56.9,55.2,30.25,SSW,206,0.0,0.0,94,0.00,,,0.00,Weather View 32 v70,2013-10-31 04:17:00,
2013-10-31 00:22:00,56.8,55.1,30.25,SSW,203,0.0,0.0,94,0.00,,,0.00,Weather View 32 v70,2013-10-31 04:22:00,
2013-10-31 00:27:00,56.7,55.0,30.24,SSW,213,0.0,0.0,94,0.00,,,0.00,Weather View 32 v70,2013-10-31 04:27:00,
2013-10-31 00:32:00,56.7,55.0,30.24,SSW,210,0.0,0.0,94,0.00,,,0.00,Weather View 32 v70,2013-10-31 04:32:00,
2013-10-31 00:37:00,56.7,55.0,30.24,SW,222,0.0,0.0,94,0.00,,,0.00,Weather View 32 v70,2013-10-31 04:37:00,
2013-10-31 00:42:00,56.7,55.0,30.25,SW,214,0.0,0.0,94,0.00,,,0.00,Weather View 32 v70,2013-10-31 04:42:00,
2013-10-31 00:47:00,56.6,54.9,30.25,SSW,208,0.0,0.0,94,0.00,,,0.00,Weather View 32 v70,2013-10-31 04:47:00,
2013-10-31 00:52:00,56.5,54.8,30.25,SSW,208,0.0,0.0,94,0.00,,,0.00,Weather View 32 v70,2013-10-31 04:52:00,
2013-10-31 00:57:00,56.4,54.7,30.25,SW,215,1.0,3.0,94,0.00,,,0.00,Weather View 32 v70,2013-10-31 04:57:00,
2013-10-31 01:02:00,56.3,54.6,30.25,SSW,212,2.0,3.0,94,0.00,,,0.00,Weather View 32 v70,2013-10-31 05:02:00,
2013-10-31 01:07:00,56.2,54.5,30.25,SSW,210,2.0,3.0,94,0.00,,,0.00,Weather View 32 v70,2013-10-31 05:07:00,
2013-10-31 01:12:00,56.1,54.4,30.25,SSW,209,2.0,3.0,94,0.00,,,0.00,Weather View 32 v70,2013-10-31 05:12:00,
2013-10-31 01:17:00,56.0,54.3,30.25,SSW,207,2.0,3.0,94,0.00,,,0.00,Weather View 32 v70,2013-10-31 05:17:00,
2013-10-31 01:22:00,55.9,54.2,30.24,SSW,209,2.0,3.0,94,0.00,,,0.00,Weather View 32 v70,2013-10-31 05:22:00,
2013-10-31 01:27:00,55.8,54.4,30.24,SW,214,1.0,3.0,95,0.00,,,0.00,Weather View 32 v70,2013-10-31 05:27:00,
2013-10-31 01:32:00,55.8,54.4,30.24,SW,234,1.0,3.0,95,0.00,,,0.00,Weather View 32 v70,2013-10-31 05:32:00,
2013-10-31 01:37:00,55.7,54.3,30.24,SSW,203,2.0,3.0,95,0.00,,,0.00,Weather View 32 v70,2013-10-31 05:37:00,
2013-10-31 01:42:00,55.7,54.3,30.23,SW,214,2.0,3.0,95,0.00,,,0.00,Weather View 32 v70,2013-10-31 05:42:00,
2013-10-31 01:47:00,55.6,54.2,30.24,SSW,211,1.0,3.0,95,0.00,,,0.00,Weather View 32 v70,2013-10-31 05:47:00,
2013-10-31 01:52:00,55.6,54.2,30.24,SSW,213,1.0,3.0,95,0.00,,,0.00,Weather View 32 v70,2013-10-31 05:52:00,
2013-10-31 01:57:00,55.5,54.4,30.24,SSW,212,0.0,3.0,96,0.00,,,0.00,Weather View 32 v70,2013-10-31 05:57:00,
2013-10-31 02:02:00,55.5,54.4,30.24,SSW,204,0.0,3.0,96,0.00,,,0.00,Weather View 32 v70,2013-10-31 06:02:00,
2013-10-31 02:07:00,55.5,54.4,30.24,SSW,212,0.0,3.0,96,0.00,,,0.00,Weather View 32 v70,2013-10-31 06:07:00,
2013-10-31 02:12:00,55.5,54.4,30.24,SSW,203,0.0,3.0,96,0.00,,,0.00,Weather View 32 v70,2013-10-31 06:12:00,
2013-10-31 02:17:00,55.6,54.5,30.24,SW,217,0.0,3.0,96,0.00,,,0.00,Weather View 32 v70,2013-10-31 06:17:00,
2013-10-31 02:22:00,55.6,54.2,30.24,SSW,210,0.0,3.0,95,0.00,,,0.00,Weather View 32 v70,2013-10-31 06:22:00,
2013-10-31 02:27:00,55.7,54.3,30.24,SSW,206,0.0,3.0,95,0.00,,,0.00,Weather View 32 v70,2013-10-31 06:27:00,
2013-10-31 02:32:00,55.7,54.3,30.23,SW,218,0.0,3.0,95,0.00,,,0.00,Weather View 32 v70,2013-10-31 06:32:00,
2013-10-31 02:37:00,55.7,54.3,30.23,SSW,212,0.0,2.0,95,0.00,,,0.00,Weather View 32 v70,2013-10-31 06:37:00,
2013-10-31 02:42:00,55.7,54.3,30.23,SSW,206,0.0,2.0,95,0.00,,,0.00,Weather View 32 v70,2013-10-31 06:42:00,
2013-10-31 02:47:00,55.8,54.4,30.23,SSW,203,2.0,2.0,95,0.00,,,0.00,Weather View 32 v70,2013-10-31 06:47:00,
2013-10-31 02:52:00,55.8,54.4,30.23,SSW,208,2.0,2.0,95,0.00,,,0.00,Weather View 32 v70,2013-10-31 06:52:00,
2013-10-31 02:57:00,55.8,54.4,30.22,SSW,207,2.0,2.0,95,0.00,,,0.00,Weather View 32 v70,2013-10-31 06:57:00,
2013-10-31 03:02:00,55.8,54.4,30.22,SSW,213,3.0,3.0,95,0.00,,,0.00,Weather View 32 v70,2013-10-31 07:02:00,
2013-10-31 03:07:00,55.9,54.5,30.22,SW,214,1.0,3.0,95,0.00,,,0.00,Weather View 32 v70,2013-10-31 07:07:00,
2013-10-31 03:12:00,56.0,54.6,30.23,SSW,203,1.0,3.0,95,0.00,,,0.00,Weather View 32 v70,2013-10-31 07:12:00,
2013-10-31 03:17:00,56.1,54.7,30.22,SSW,205,1.0,3.0,95,0.00,,,0.00,Weather View 32 v70,2013-10-31 07:17:00,
2013-10-31 03:22:00,56.1,54.7,30.22,SSW,205,1.0,3.0,95,0.00,,,0.00,Weather View 32 v70,2013-10-31 07:22:00,
2013-10-31 03:27:00,56.2,54.5,30.22,SSW,204,2.0,3.0,94,0.00,,,0.00,Weather View 32 v70,2013-10-31 07:27:00,
2013-10-31 03:32:00,56.3,54.6,30.22,SSW,205,2.0,3.0,94,0.00,,,0.00,Weather View 32 v70,2013-10-31 07:32:00,
2013-10-31 03:37:00,56.4,54.7,30.22,SSW,208,0.0,3.0,94,0.00,,,0.00,Weather View 32 v70,2013-10-31 07:37:00,
2013-10-31 03:42:00,56.5,54.8,30.22,SSW,197,0.0,3.0,94,0.00,,,0.00,Weather View 32 v70,2013-10-31 07:42:00,
2013-10-31 03:47:00,56.5,54.8,30.21,SSW,198,0.0,3.0,94,0.00,,,0.00,Weather View 32 v70,2013-10-31 07:47:00,
2013-10-31 03:52:00,56.5,54.8,30.21,SSW,206,0.0,3.0,94,0.00,,,0.00,Weather View 32 v70,2013-10-31 07:52:00,
2013-10-31 03:57:00,56.5,54.8,30.21,SSW,211,0.0,3.0,94,0.00,,,0.00,Weather View 32 v70,2013-10-31 07:57:00,
2013-10-31 04:02:00,56.5,54.8,30.20,SSW,203,0.0,3.0,94,0.00,,,0.00,Weather View 32 v70,2013-10-31 08:02:00,
2013-10-31 04:07:00,56.4,54.7,30.20,SSW,200,0.0,3.0,94,0.00,,,0.00,Weather View 32 v70,2013-10-31 08:07:00,
2013-10-31 04:12:00,56.4,54.7,30.20,South,176,0.0,3.0,94,0.00,,,0.00,Weather View 32 v70,2013-10-31 08:12:00,
2013-10-31 04:17:00,56.4,54.7,30.20,SSE,161,0.0,3.0,94,0.00,,,0.00,Weather View 32 v70,2013-10-31 08:17:00,
2013-10-31 04:22:00,56.4,54.7,30.20,SSW,205,0.0,3.0,94,0.00,,,0.00,Weather View 32 v70,2013-10-31 08:22:00,
2013-10-31 04:27:00,56.4,54.7,30.20,SSW,197,0.0,3.0,94,0.00,,,0.00,Weather View 32 v70,2013-10-31 08:27:00,
2013-10-31 04:32:00,56.4,54.7,30.20,SSW,204,0.0,3.0,94,0.00,,,0.00,Weather View 32 v70,2013-10-31 08:32:00,
2013-10-31 04:37:00,56.7,54.7,30.19,SE,137,2.0,2.0,93,0.00,,,0.00,Weather View 32 v70,2013-10-31 08:37:00,
2013-10-31 04:42:00,57.0,55.0,30.19,West,263,1.0,3.0,93,0.00,,,0.00,Weather View 32 v70,2013-10-31 08:42:00,
2013-10-31 04:47:00,57.2,54.9,30.19,South,188,0.0,3.0,92,0.00,,,0.00,Weather View 32 v70,2013-10-31 08:47:00,
2013-10-31 04:52:00,57.1,54.8,30.19,WSW,243,0.0,3.0,92,0.00,,,0.00,Weather View 32 v70,2013-10-31 08:52:00,
2013-10-31 04:57:00,57.1,54.8,30.19,South,187,0.0,3.0,92,0.00,,,0.00,Weather View 32 v70,2013-10-31 08:57:00,
2013-10-31 05:02:00,57.4,55.1,30.19,West,272,0.0,3.0,92,0.00,,,0.00,Weather View 32 v70,2013-10-31 09:02:00,
2013-10-31 05:07:00,57.6,55.0,30.19,SSE,166,0.0,3.0,91,0.00,,,0.00,Weather View 32 v70,2013-10-31 09:07:00,
2013-10-31 05:12:00,57.6,55.0,30.18,South,191,0.0,3.0,91,0.00,,,0.00,Weather View 32 v70,2013-10-31 09:12:00,
2013-10-31 05:17:00,57.6,55.0,30.18,SW,219,0.0,3.0,91,0.00,,,0.00,Weather View 32 v70,2013-10-31 09:17:00,
2013-10-31 05:22:00,57.6,54.7,30.18,SW,223,0.0,3.0,90,0.00,,,0.00,Weather View 32 v70,2013-10-31 09:22:00,
2013-10-31 05:27:00,57.3,54.7,30.18,WSW,238,0.0,3.0,91,0.00,,,0.00,Weather View 32 v70,2013-10-31 09:27:00,
2013-10-31 05:32:00,57.5,54.9,30.18,North,349,0.0,3.0,91,0.00,,,0.00,Weather View 32 v70,2013-10-31 09:32:00,
2013-10-31 05:37:00,57.4,54.8,30.19,WSW,239,0.0,3.0,91,0.00,,,0.00,Weather View 32 v70,2013-10-31 09:37:00,
2013-10-31 05:42:00,57.4,54.8,30.19,SSW,211,2.0,3.0,91,0.00,,,0.00,Weather View 32 v70,2013-10-31 09:42:00,
2013-10-31 05:47:00,57.3,54.4,30.19,SSW,203,2.0,3.0,90,0.00,,,0.00,Weather View 32 v70,2013-10-31 09:47:00,
2013-10-31 05:52:00,57.4,54.5,30.19,SSE,168,0.0,3.0,90,0.00,,,0.00,Weather View 32 v70,2013-10-31 09:52:00,
2013-10-31 05:57:00,57.8,54.3,30.19,NE,42,0.0,3.0,88,0.00,,,0.00,Weather View 32 v70,2013-10-31 09:57:00,
2013-10-31 06:02:00,58.1,54.6,30.19,SW,223,1.0,3.0,88,0.00,,,0.00,Weather View 32 v70,2013-10-31 10:02:00,
2013-10-31 06:07:00,58.3,54.8,30.19,SW,233,0.0,3.0,88,0.00,,,0.00,Weather View 32 v70,2013-10-31 10:07:00,
2013-10-31 06:12:00,58.4,54.5,30.19,North,7,1.0,3.0,87,0.00,,,0.00,Weather View 32 v70,2013-10-31 10:12:00,
2013-10-31 06:17:00,58.3,54.4,30.19,North,7,0.0,3.0,87,0.00,,,0.00,Weather View 32 v70,2013-10-31 10:17:00,
2013-10-31 06:22:00,58.3,54.8,30.20,SSW,208,0.0,3.0,88,0.00,,,0.00,Weather View 32 v70,2013-10-31 10:22:00,
2013-10-31 06:27:00,58.1,54.6,30.19,SSW,209,0.0,3.0,88,0.00,,,0.00,Weather View 32 v70,2013-10-31 10:27:00,
2013-10-31 06:32:00,58.2,54.0,30.19,SSE,153,0.0,3.0,86,0.00,,,0.00,Weather View 32 v70,2013-10-31 10:32:00,
2013-10-31 06:37:00,58.2,54.3,30.19,SSW,207,0.0,3.0,87,0.00,,,0.00,Weather View 32 v70,2013-10-31 10:37:00,
2013-10-31 06:42:00,58.1,53.9,30.20,ENE,75,0.0,3.0,86,0.00,,,0.00,Weather View 32 v70,2013-10-31 10:42:00,
2013-10-31 06:47:00,58.1,54.2,30.20,WNW,283,0.0,3.0,87,0.00,,,0.00,Weather View 32 v70,2013-10-31 10:47:00,
2013-10-31 06:52:00,58.0,54.1,30.20,SSE,154,1.0,4.0,87,0.00,,,0.00,Weather View 32 v70,2013-10-31 10:52:00,
2013-10-31 06:57:00,58.0,54.1,30.20,SE,133,2.0,4.0,87,0.00,,,0.00,Weather View 32 v70,2013-10-31 10:57:00,
2013-10-31 07:02:00,58.1,53.9,30.20,South,181,2.0,5.0,86,0.00,,,0.00,Weather View 32 v70,2013-10-31 11:02:00,
2013-10-31 07:07:00,58.2,54.0,30.20,SE,139,0.0,5.0,86,0.00,,,0.00,Weather View 32 v70,2013-10-31 11:07:00,
2013-10-31 07:13:00,58.1,53.9,30.21,SSE,148,0.0,5.0,86,0.00,,,0.00,Weather View 32 v70,2013-10-31 11:13:00,
2013-10-31 07:18:00,58.2,53.7,30.21,SSW,207,1.0,5.0,85,0.00,,,0.00,Weather View 32 v70,2013-10-31 11:18:00,
2013-10-31 07:23:00,58.3,54.1,30.21,SSW,206,1.0,6.0,86,0.00,,,0.00,Weather View 32 v70,2013-10-31 11:23:00,
2013-10-31 07:28:00,58.1,53.6,30.20,SW,215,1.0,6.0,85,0.00,,,0.00,Weather View 32 v70,2013-10-31 11:28:00,
2013-10-31 07:33:00,57.9,53.7,30.20,SSW,205,2.0,6.0,86,0.00,,,0.00,Weather View 32 v70,2013-10-31 11:33:00,
2013-10-31 07:38:00,58.0,53.8,30.20,SSW,213,0.0,6.0,86,0.00,,,0.00,Weather View 32 v70,2013-10-31 11:38:00,
2013-10-31 07:43:00,57.8,53.9,30.20,SSW,213,0.0,6.0,87,0.00,,,0.00,Weather View 32 v70,2013-10-31 11:43:00,
2013-10-31 07:48:00,57.7,53.5,30.20,SW,215,0.0,6.0,86,0.00,,,0.00,Weather View 32 v70,2013-10-31 11:48:00,
2013-10-31 07:53:00,57.5,53.7,30.20,SSW,213,0.0,6.0,87,0.00,,,0.00,Weather View 32 v70,2013-10-31 11:53:00,
2013-10-31 07:58:00,57.4,53.2,30.20,South,171,0.0,6.0,86,0.00,,,0.00,Weather View 32 v70,2013-10-31 11:58:00,
2013-10-31 08:03:00,57.3,53.5,30.19,South,181,1.0,6.0,87,0.00,,,0.00,Weather View 32 v70,2013-10-31 12:03:00,
2013-10-31 08:08:00,57.2,53.4,30.19,SSW,196,0.0,6.0,87,0.00,,,0.00,Weather View 32 v70,2013-10-31 12:08:00,
2013-10-31 08:13:00,57.2,53.4,30.19,SSW,205,2.0,6.0,87,0.00,,,0.00,Weather View 32 v70,2013-10-31 12:13:00,
2013-10-31 08:18:00,57.1,53.3,30.18,SSW,200,0.0,6.0,87,0.00,,,0.00,Weather View 32 v70,2013-10-31 12:18:00,
2013-10-31 08:23:00,57.1,53.3,30.18,SSW,196,0.0,3.0,87,0.00,,,0.00,Weather View 32 v70,2013-10-31 12:23:00,
2013-10-31 08:28:00,57.1,53.6,30.18,SSW,212,0.0,3.0,88,0.00,,,0.00,Weather View 32 v70,2013-10-31 12:28:00,
2013-10-31 08:33:00,57.0,53.5,30.18,WNW,297,0.0,3.0,88,0.00,,,0.00,Weather View 32 v70,2013-10-31 12:33:00,
2013-10-31 08:38:00,57.0,53.5,30.18,SSW,206,2.0,5.0,88,0.00,,,0.00,Weather View 32 v70,2013-10-31 12:38:00,
2013-10-31 08:43:00,57.3,53.5,30.18,South,178,2.0,5.0,87,0.00,,,0.00,Weather View 32 v70,2013-10-31 12:43:00,
2013-10-31 08:48:00,57.9,53.1,30.18,East,84,1.0,5.0,84,0.00,,,0.00,Weather View 32 v70,2013-10-31 12:48:00,
2013-10-31 08:53:00,58.3,53.5,30.18,SW,231,2.0,8.0,84,0.00,,,0.00,Weather View 32 v70,2013-10-31 12:53:00,
2013-10-31 08:58:00,58.4,53.6,30.18,ESE,106,2.0,8.0,84,0.00,,,0.00,Weather View 32 v70,2013-10-31 12:58:00,
2013-10-31 09:03:00,58.6,53.8,30.18,SSW,196,0.0,8.0,84,0.00,,,0.00,Weather View 32 v70,2013-10-31 13:03:00,
2013-10-31 09:08:00,58.6,53.8,30.18,SSE,154,2.0,8.0,84,0.00,,,0.00,Weather View 32 v70,2013-10-31 13:08:00,
2013-10-31 09:13:00,58.6,54.4,30.17,SW,236,0.0,8.0,86,0.00,,,0.00,Weather View 32 v70,2013-10-31 13:13:00,
2013-10-31 09:18:00,58.5,54.3,30.17,WSW,247,0.0,8.0,86,0.00,,,0.00,Weather View 32 v70,2013-10-31 13:18:00,
2013-10-31 09:23:00,58.5,54.3,30.17,SSW,203,0.0,8.0,86,0.00,,,0.00,Weather View 32 v70,2013-10-31 13:23:00,
2013-10-31 09:28:00,58.6,54.1,30.18,SSW,203,0.0,8.0,85,0.00,,,0.00,Weather View 32 v70,2013-10-31 13:28:00,
2013-10-31 09:33:00,59.1,54.3,30.17,WSW,252,1.0,8.0,84,0.00,,,0.00,Weather View 32 v70,2013-10-31 13:33:00,
2013-10-31 09:38:00,59.3,53.5,30.17,SSE,160,2.0,8.0,81,0.00,,,0.00,Weather View 32 v70,2013-10-31 13:38:00,
2013-10-31 09:43:00,59.6,53.7,30.17,South,191,0.0,8.0,81,0.00,,,0.00,Weather View 32 v70,2013-10-31 13:43:00,
2013-10-31 09:48:00,59.9,53.7,30.17,NE,40,0.0,8.0,80,0.00,,,0.00,Weather View 32 v70,2013-10-31 13:48:00,
2013-10-31 09:53:00,60.1,54.9,30.17,SSE,163,0.0,8.0,83,0.00,,,0.00,Weather View 32 v70,2013-10-31 13:53:00,
2013-10-31 09:58:00,60.2,55.0,30.17,South,178,0.0,5.0,83,0.00,,,0.00,Weather View 32 v70,2013-10-31 13:58:00,
2013-10-31 10:03:00,60.0,54.1,30.17,South,172,0.0,5.0,81,0.00,,,0.00,Weather View 32 v70,2013-10-31 14:03:00,
2013-10-31 10:08:00,60.0,54.5,30.18,South,180,0.0,5.0,82,0.00,,,0.00,Weather View 32 v70,2013-10-31 14:08:00,
2013-10-31 10:13:00,59.9,54.0,30.18,WNW,300,1.0,5.0,81,0.00,,,0.00,Weather View 32 v70,2013-10-31 14:13:00,
2013-10-31 10:18:00,59.8,54.3,30.18,SE,127,0.0,5.0,82,0.00,,,0.00,Weather View 32 v70,2013-10-31 14:18:00,
2013-10-31 10:23:00,59.6,53.7,30.18,North,6,1.0,5.0,81,0.00,,,0.00,Weather View 32 v70,2013-10-31 14:23:00,
2013-10-31 10:28:00,59.5,53.0,30.18,NNW,336,0.0,5.0,79,0.00,,,0.00,Weather View 32 v70,2013-10-31 14:28:00,
2013-10-31 10:33:00,59.5,52.6,30.19,NNE,27,2.0,6.0,78,0.00,,,0.00,Weather View 32 v70,2013-10-31 14:33:00,
2013-10-31 10:38:00,59.5,52.6,30.19,South,180,2.0,6.0,78,0.00,,,0.00,Weather View 32 v70,2013-10-31 14:38:00,
2013-10-31 10:43:00,59.4,52.9,30.19,ENE,57,3.0,6.0,79,0.00,,,0.00,Weather View 32 v70,2013-10-31 14:43:00,
2013-10-31 10:48:00,59.3,52.1,30.19,NNE,24,1.0,6.0,77,0.00,,,0.00,Weather View 32 v70,2013-10-31 14:48:00,
2013-10-31 10:53:00,59.3,52.8,30.18,North,5,1.0,6.0,79,0.00,,,0.00,Weather View 32 v70,2013-10-31 14:53:00,
2013-10-31 10:58:00,59.4,52.2,30.17,SE,145,0.0,7.0,77,0.00,,,0.00,Weather View 32 v70,2013-10-31 14:58:00,
2013-10-31 11:03:00,59.2,52.0,30.17,ENE,61,4.0,7.0,77,0.00,,,0.00,Weather View 32 v70,2013-10-31 15:03:00,
2013-10-31 11:08:00,59.3,51.7,30.15,SE,143,1.0,8.0,76,0.00,,,0.00,Weather View 32 v70,2013-10-31 15:08:00,
2013-10-31 11:13:00,59.5,52.3,30.15,South,186,0.0,8.0,77,0.00,,,0.00,Weather View 32 v70,2013-10-31 15:13:00,
2013-10-31 11:18:00,59.5,52.3,30.16,ENE,69,0.0,8.0,77,0.00,,,0.00,Weather View 32 v70,2013-10-31 15:18:00,
2013-10-31 11:23:00,59.5,52.3,30.16,North,6,0.0,8.0,77,0.00,,,0.00,Weather View 32 v70,2013-10-31 15:23:00,
2013-10-31 11:28:00,59.7,52.5,30.15,SW,222,2.0,8.0,77,0.00,,,0.00,Weather View 32 v70,2013-10-31 15:28:00,
2013-10-31 11:33:00,59.9,52.7,30.15,SE,127,1.0,8.0,77,0.00,,,0.00,Weather View 32 v70,2013-10-31 15:33:00,
2013-10-31 11:38:00,60.2,52.6,30.15,South,170,0.0,8.0,76,0.00,,,0.00,Weather View 32 v70,2013-10-31 15:38:00,
2013-10-31 11:43:00,60.5,52.9,30.14,ENE,61,1.0,8.0,76,0.00,,,0.00,Weather View 32 v70,2013-10-31 15:43:00,
2013-10-31 11:48:00,60.6,52.6,30.14,ESE,116,2.0,8.0,75,0.00,,,0.00,Weather View 32 v70,2013-10-31 15:48:00,
2013-10-31 11:53:00,60.8,52.8,30.14,SSW,213,2.0,8.0,75,0.00,,,0.00,Weather View 32 v70,2013-10-31 15:53:00,
2013-10-31 11:58:00,61.0,53.4,30.14,East,87,2.0,8.0,76,0.00,,,0.00,Weather View 32 v70,2013-10-31 15:58:00,
2013-10-31 12:03:00,61.0,53.0,30.14,East,98,2.0,8.0,75,0.00,,,0.00,Weather View 32 v70,2013-10-31 16:03:00,
2013-10-31 12:08:00,61.2,53.2,30.15,East,92,1.0,7.0,75,0.00,,,0.00,Weather View 32 v70,2013-10-31 16:08:00,
2013-10-31 12:13:00,61.3,53.3,30.15,SE,125,2.0,6.0,75,0.00,,,0.00,Weather View 32 v70,2013-10-31 16:13:00,
2013-10-31 12:18:00,61.4,53.4,30.14,SW,216,0.0,6.0,75,0.00,,,0.00,Weather View 32 v70,2013-10-31 16:18:00,
2013-10-31 12:23:00,61.4,53.4,30.14,SSE,160,3.0,6.0,75,0.00,,,0.00,Weather View 32 v70,2013-10-31 16:23:00,
2013-10-31 12:28:00,61.1,53.1,30.13,North,11,1.0,7.0,75,0.00,,,0.00,Weather View 32 v70,2013-10-31 16:28:00,
2013-10-31 12:33:00,61.3,53.7,30.13,East,99,0.0,7.0,76,0.00,,,0.00,Weather View 32 v70,2013-10-31 16:33:00,
2013-10-31 12:38:00,61.4,54.1,30.13,East,99,0.0,7.0,77,0.00,,,0.00,Weather View 32 v70,2013-10-31 16:38:00,
2013-10-31 12:43:00,61.5,54.6,30.13,ENE,62,1.0,7.0,78,0.00,,,0.00,Weather View 32 v70,2013-10-31 16:43:00,
2013-10-31 12:48:00,61.8,55.2,30.12,NE,36,0.0,7.0,79,0.00,,,0.00,Weather View 32 v70,2013-10-31 16:48:00,
2013-10-31 12:53:00,61.9,54.9,30.12,SSW,194,2.0,7.0,78,0.00,,,0.00,Weather View 32 v70,2013-10-31 16:53:00,
2013-10-31 12:58:00,61.9,55.3,30.12,SE,136,3.0,7.0,79,0.00,,,0.00,Weather View 32 v70,2013-10-31 16:58:00,
2013-10-31 13:03:00,61.8,55.5,30.12,ENE,78,0.0,7.0,80,0.00,,,0.00,Weather View 32 v70,2013-10-31 17:03:00,
2013-10-31 13:08:00,61.7,55.8,30.11,SE,125,3.0,7.0,81,0.00,,,0.00,Weather View 32 v70,2013-10-31 17:08:00,
2013-10-31 13:13:00,61.6,55.7,30.12,ENE,77,2.0,9.0,81,0.00,,,0.00,Weather View 32 v70,2013-10-31 17:13:00,
2013-10-31 13:18:00,61.6,56.0,30.12,WSW,256,3.0,9.0,82,0.00,,,0.00,Weather View 32 v70,2013-10-31 17:18:00,
2013-10-31 13:23:00,61.7,56.1,30.12,West,273,0.0,9.0,82,0.00,,,0.00,Weather View 32 v70,2013-10-31 17:23:00,
2013-10-31 13:28:00,61.7,56.5,30.12,SW,233,0.0,9.0,83,0.00,,,0.00,Weather View 32 v70,2013-10-31 17:28:00,
2013-10-31 13:33:00,61.8,56.6,30.11,ENE,70,0.0,9.0,83,0.00,,,0.00,Weather View 32 v70,2013-10-31 17:33:00,
2013-10-31 13:38:00,61.7,56.8,30.11,NE,35,2.0,11.0,84,0.00,,,0.00,Weather View 32 v70,2013-10-31 17:38:00,
2013-10-31 13:43:00,61.7,56.8,30.11,NNE,25,2.0,11.0,84,0.00,,,0.00,Weather View 32 v70,2013-10-31 17:43:00,
2013-10-31 13:48:00,61.5,56.6,30.11,East,83,2.0,11.0,84,0.00,,,0.00,Weather View 32 v70,2013-10-31 17:48:00,
2013-10-31 13:53:00,61.4,56.8,30.10,NW,304,3.0,11.0,85,0.00,,,0.00,Weather View 32 v70,2013-10-31 17:53:00,
2013-10-31 13:58:00,61.2,56.6,30.10,SE,130,1.0,11.0,85,0.00,,,0.00,Weather View 32 v70,2013-10-31 17:58:00,
2013-10-31 14:03:00,60.9,56.7,30.10,NE,43,6.0,11.0,86,0.00,,,0.00,Weather View 32 v70,2013-10-31 18:03:00,
2013-10-31 14:08:00,60.7,56.8,30.10,SSE,155,6.0,11.0,87,0.00,,,0.00,Weather View 32 v70,2013-10-31 18:08:00,
2013-10-31 14:13:00,60.4,56.8,30.09,West,268,2.0,11.0,88,0.00,,,0.00,Weather View 32 v70,2013-10-31 18:13:00,
2013-10-31 14:18:00,60.4,56.8,30.09,ENE,77,2.0,11.0,88,0.00,,,0.00,Weather View 32 v70,2013-10-31 18:18:00,
2013-10-31 14:23:00,60.2,56.9,30.08,East,92,2.0,11.0,89,0.00,,,0.00,Weather View 32 v70,2013-10-31 18:23:00,
2013-10-31 14:28:00,60.1,56.8,30.08,ESE,121,3.0,11.0,89,0.00,,,0.00,Weather View 32 v70,2013-10-31 18:28:00,
2013-10-31 14:33:00,60.3,57.0,30.07,ENE,77,1.0,11.0,89,0.00,,,0.00,Weather View 32 v70,2013-10-31 18:33:00,
2013-10-31 14:38:00,60.5,57.2,30.07,ENE,76,1.0,11.0,89,0.00,,,0.00,Weather View 32 v70,2013-10-31 18:38:00,
2013-10-31 14:43:00,60.8,57.5,30.06,SSW,204,1.0,11.0,89,0.00,,,0.00,Weather View 32 v70,2013-10-31 18:43:00,
2013-10-31 14:48:00,61.1,57.5,30.05,ESE,117,2.0,11.0,88,0.00,,,0.00,Weather View 32 v70,2013-10-31 18:48:00,
2013-10-31 14:53:00,61.5,57.9,30.05,ENE,64,1.0,11.0,88,0.00,,,0.00,Weather View 32 v70,2013-10-31 18:53:00,
2013-10-31 14:58:00,61.8,57.9,30.05,SSE,151,3.0,11.0,87,0.00,,,0.00,Weather View 32 v70,2013-10-31 18:58:00,
2013-10-31 15:03:00,62.1,58.2,30.05,SSW,207,1.0,11.0,87,0.00,,,0.00,Weather View 32 v70,2013-10-31 19:03:00,
2013-10-31 15:08:00,62.4,58.1,30.05,SSE,161,2.0,11.0,86,0.00,,,0.00,Weather View 32 v70,2013-10-31 19:08:00,
2013-10-31 15:13:00,62.7,58.4,30.05,ENE,64,0.0,11.0,86,0.00,,,0.00,Weather View 32 v70,2013-10-31 19:13:00,
2013-10-31 15:18:00,62.8,58.2,30.05,East,89,4.0,11.0,85,0.00,,,0.00,Weather View 32 v70,2013-10-31 19:18:00,
2013-10-31 15:23:00,62.9,58.3,30.05,SE,140,2.0,11.0,85,0.00,,,0.00,Weather View 32 v70,2013-10-31 19:23:00,
2013-10-31 15:28:00,62.9,58.3,30.05,ESE,113,0.0,11.0,85,0.00,,,0.00,Weather View 32 v70,2013-10-31 19:28:00,
2013-10-31 15:33:00,62.9,58.3,30.04,WNW,302,1.0,11.0,85,0.00,,,0.00,Weather View 32 v70,2013-10-31 19:33:00,
2013-10-31 15:38:00,62.9,58.3,30.05,NW,310,1.0,11.0,85,0.00,,,0.00,Weather View 32 v70,2013-10-31 19:38:00,
2013-10-31 15:43:00,62.9,58.3,30.04,SSW,202,6.0,7.0,85,0.00,,,0.00,Weather View 32 v70,2013-10-31 19:43:00,
2013-10-31 15:48:00,62.9,58.3,30.03,NNW,334,2.0,8.0,85,0.00,,,0.00,Weather View 32 v70,2013-10-31 19:48:00,
2013-10-31 15:53:00,62.9,58.3,30.03,SSE,168,2.0,8.0,85,0.00,,,0.00,Weather View 32 v70,2013-10-31 19:53:00,
2013-10-31 15:58:00,63.1,58.2,30.03,SE,132,2.0,9.0,84,0.00,,,0.00,Weather View 32 v70,2013-10-31 19:58:00,
2013-10-31 16:03:00,63.4,58.5,30.03,NE,45,2.0,9.0,84,0.00,,,0.00,Weather View 32 v70,2013-10-31 20:03:00,
2013-10-31 16:08:00,63.5,58.2,30.03,SSE,157,2.0,10.0,83,0.00,,,0.00,Weather View 32 v70,2013-10-31 20:08:00,
2013-10-31 16:13:00,63.7,58.4,30.03,ENE,69,0.0,10.0,83,0.00,,,0.00,Weather View 32 v70,2013-10-31 20:13:00,
2013-10-31 16:19:00,63.8,58.5,30.03,ESE,102,1.0,10.0,83,0.00,,,0.00,Weather View 32 v70,2013-10-31 20:19:00,
2013-10-31 16:24:00,63.7,58.8,30.02,SSE,155,2.0,10.0,84,0.00,,,0.00,Weather View 32 v70,2013-10-31 20:24:00,
2013-10-31 16:29:00,63.7,58.8,30.02,SW,217,3.0,10.0,84,0.00,,,0.00,Weather View 32 v70,2013-10-31 20:29:00,
2013-10-31 16:34:00,63.7,58.8,30.02,ENE,73,0.0,10.0,84,0.00,,,0.00,Weather View 32 v70,2013-10-31 20:34:00,
2013-10-31 16:39:00,63.8,58.9,30.02,ESE,118,0.0,10.0,84,0.00,,,0.00,Weather View 32 v70,2013-10-31 20:39:00,
2013-10-31 16:44:00,63.8,58.9,30.02,NNW,343,3.0,10.0,84,0.00,,,0.00,Weather View 32 v70,2013-10-31 20:44:00,
2013-10-31 16:49:00,63.8,58.5,30.02,SSE,153,3.0,10.0,83,0.00,,,0.00,Weather View 32 v70,2013-10-31 20:49:00,
2013-10-31 16:54:00,63.8,58.5,30.01,SE,143,8.0,11.0,83,0.00,,,0.00,Weather View 32 v70,2013-10-31 20:54:00,
2013-10-31 16:59:00,63.8,58.5,30.01,ESE,111,3.0,11.0,83,0.00,,,0.00,Weather View 32 v70,2013-10-31 20:59:00,
2013-10-31 17:04:00,63.8,58.5,30.01,South,185,1.0,11.0,83,0.00,,,0.00,Weather View 32 v70,2013-10-31 21:04:00,
2013-10-31 17:09:00,63.7,58.4,30.01,East,87,4.0,11.0,83,0.00,,,0.00,Weather View 32 v70,2013-10-31 21:09:00,
2013-10-31 17:14:00,63.6,58.3,30.00,NNW,338,3.0,11.0,83,0.00,,,0.00,Weather View 32 v70,2013-10-31 21:14:00,
2013-10-31 17:19:00,63.7,58.1,30.00,SE,128,0.0,13.0,82,0.00,,,0.00,Weather View 32 v70,2013-10-31 21:19:00,
2013-10-31 17:24:00,63.6,58.3,30.00,SSE,161,4.0,13.0,83,0.00,,,0.00,Weather View 32 v70,2013-10-31 21:24:00,
2013-10-31 17:29:00,63.6,58.3,30.00,East,84,4.0,13.0,83,0.00,,,0.00,Weather View 32 v70,2013-10-31 21:29:00,
2013-10-31 17:34:00,63.5,58.2,29.99,East,95,4.0,13.0,83,0.00,,,0.00,Weather View 32 v70,2013-10-31 21:34:00,
2013-10-31 17:39:00,63.6,58.3,29.99,SE,136,1.0,13.0,83,0.00,,,0.00,Weather View 32 v70,2013-10-31 21:39:00,
2013-10-31 17:44:00,63.6,58.3,30.00,ESE,121,2.0,13.0,83,0.00,,,0.00,Weather View 32 v70,2013-10-31 21:44:00,
2013-10-31 17:49:00,63.4,58.1,29.99,WSW,254,2.0,13.0,83,0.00,,,0.00,Weather View 32 v70,2013-10-31 21:49:00,
2013-10-31 17:54:00,63.4,58.1,29.99,NNE,31,3.0,13.0,83,0.00,,,0.00,Weather View 32 v70,2013-10-31 21:54:00,
2013-10-31 17:59:00,63.4,58.1,30.00,East,89,2.0,13.0,83,0.00,,,0.00,Weather View 32 v70,2013-10-31 21:59:00,
2013-10-31 18:04:00,63.5,58.2,30.00,WSW,253,2.0,13.0,83,0.00,,,0.00,Weather View 32 v70,2013-10-31 22:04:00,
2013-10-31 18:09:00,63.5,58.2,29.99,SSE,155,2.0,13.0,83,0.00,,,0.00,Weather View 32 v70,2013-10-31 22:09:00,
2013-10-31 18:14:00,63.6,58.3,30.00,East,100,2.0,13.0,83,0.00,,,0.00,Weather View 32 v70,2013-10-31 22:14:00,
2013-10-31 18:19:00,63.3,58.0,29.99,NE,35,7.0,11.0,83,0.00,,,0.00,Weather View 32 v70,2013-10-31 22:19:00,
2013-10-31 18:24:00,63.5,58.2,29.99,SE,146,1.0,11.0,83,0.00,,,0.00,Weather View 32 v70,2013-10-31 22:24:00,
2013-10-31 18:29:00,63.6,58.0,29.99,North,5,2.0,11.0,82,0.00,,,0.00,Weather View 32 v70,2013-10-31 22:29:00,
2013-10-31 18:34:00,63.4,58.1,29.99,NNE,33,2.0,10.0,83,0.00,,,0.00,Weather View 32 v70,2013-10-31 22:34:00,
2013-10-31 18:39:00,63.2,57.9,29.99,ESE,113,2.0,10.0,83,0.00,,,0.00,Weather View 32 v70,2013-10-31 22:39:00,
2013-10-31 18:44:00,63.3,58.0,29.98,ESE,108,3.0,10.0,83,0.00,,,0.00,Weather View 32 v70,2013-10-31 22:44:00,
2013-10-31 18:49:00,63.4,57.8,29.99,South,189,4.0,10.0,82,0.00,,,0.00,Weather View 32 v70,2013-10-31 22:49:00,
2013-10-31 18:54:00,63.8,58.2,29.99,SSE,150,0.0,10.0,82,0.00,,,0.00,Weather View 32 v70,2013-10-31 22:54:00,
2013-10-31 18:59:00,63.7,58.1,30.00,ESE,114,2.0,9.0,82,0.00,,,0.00,Weather View 32 v70,2013-10-31 22:59:00,
2013-10-31 19:04:00,63.7,58.1,30.00,North,5,3.0,9.0,82,0.00,,,0.00,Weather View 32 v70,2013-10-31 23:04:00,
2013-10-31 19:09:00,63.8,58.2,30.00,SW,232,2.0,9.0,82,0.00,,,0.00,Weather View 32 v70,2013-10-31 23:09:00,
2013-10-31 19:14:00,63.8,58.2,29.99,SSE,157,7.0,11.0,82,0.00,,,0.00,Weather View 32 v70,2013-10-31 23:14:00,
2013-10-31 19:19:00,63.8,58.5,30.00,WNW,295,1.0,11.0,83,0.00,,,0.00,Weather View 32 v70,2013-10-31 23:19:00,
2013-10-31 19:24:00,63.5,58.2,29.99,SE,125,2.0,11.0,83,0.00,,,0.00,Weather View 32 v70,2013-10-31 23:24:00,
2013-10-31 19:29:00,63.6,58.3,29.99,West,266,1.0,12.0,83,0.00,,,0.00,Weather View 32 v70,2013-10-31 23:29:00,
2013-10-31 19:34:00,63.8,58.5,29.99,ESE,109,1.0,12.0,83,0.00,,,0.00,Weather View 32 v70,2013-10-31 23:34:00,
2013-10-31 19:39:00,63.8,58.5,29.99,West,274,0.0,12.0,83,0.00,,,0.00,Weather View 32 v70,2013-10-31 23:39:00,
2013-10-31 19:44:00,63.7,58.4,29.99,ENE,68,4.0,12.0,83,0.00,,,0.00,Weather View 32 v70,2013-10-31 23:44:00,
2013-10-31 19:49:00,63.6,58.7,29.99,SSW,198,3.0,12.0,84,0.00,,,0.00,Weather View 32 v70,2013-10-31 23:49:00,
2013-10-31 19:54:00,63.4,58.8,29.99,West,259,1.0,12.0,85,0.00,,,0.00,Weather View 32 v70,2013-10-31 23:54:00,
2013-10-31 19:59:00,63.2,58.6,29.99,SSE,147,2.0,12.0,85,0.00,,,0.00,Weather View 32 v70,2013-10-31 23:59:00,
2013-10-31 20:04:00,63.2,58.6,30.00,NNW,346,2.0,12.0,85,0.00,,,0.00,Weather View 32 v70,2013-11-01 00:04:00,
2013-10-31 20:09:00,63.1,58.8,29.99,WSW,246,2.0,12.0,86,0.00,,,0.00,Weather View 32 v70,2013-11-01 00:09:00,
2013-10-31 20:14:00,63.0,58.7,29.99,SSE,166,5.0,12.0,86,0.00,,,0.00,Weather View 32 v70,2013-11-01 00:14:00,
2013-10-31 20:19:00,62.8,58.9,29.99,East,84,3.0,12.0,87,0.00,,,0.00,Weather View 32 v70,2013-11-01 00:19:00,
2013-10-31 20:24:00,62.3,59.0,29.98,ESE,119,2.0,12.0,89,0.00,,,0.00,Weather View 32 v70,2013-11-01 00:24:00,
2013-10-31 20:29:00,62.0,59.0,29.99,WSW,237,4.0,12.0,90,0.00,,,0.00,Weather View 32 v70,2013-11-01 00:29:00,
2013-10-31 20:34:00,61.9,59.2,29.99,NNE,15,1.0,11.0,91,0.00,,,0.00,Weather View 32 v70,2013-11-01 00:34:00,
2013-10-31 20:39:00,61.7,59.3,29.99,West,259,0.0,11.0,92,0.00,,,0.00,Weather View 32 v70,2013-11-01 00:39:00,
2013-10-31 20:44:00,61.6,59.2,29.99,NNW,335,1.0,11.0,92,0.00,,,0.00,Weather View 32 v70,2013-11-01 00:44:00,
2013-10-31 20:49:00,61.6,59.2,29.99,West,274,1.0,11.0,92,0.00,,,0.00,Weather View 32 v70,2013-11-01 00:49:00,
2013-10-31 20:54:00,61.5,59.1,29.99,NNW,339,2.0,11.0,92,0.00,,,0.00,Weather View 32 v70,2013-11-01 00:54:00,
2013-10-31 20:59:00,61.5,59.1,29.99,NNW,335,1.0,11.0,92,0.00,,,0.00,Weather View 32 v70,2013-11-01 00:59:00,
2013-10-31 21:04:00,61.3,59.3,29.99,NNW,347,2.0,11.0,93,0.00,,,0.00,Weather View 32 v70,2013-11-01 01:04:00,
2013-10-31 21:09:00,61.2,59.2,29.98,WSW,238,3.0,11.0,93,0.00,,,0.00,Weather View 32 v70,2013-11-01 01:09:00,
2013-10-31 21:14:00,61.0,59.3,29.99,ESE,113,5.0,11.0,94,0.00,,,0.00,Weather View 32 v70,2013-11-01 01:14:00,
2013-10-31 21:19:00,61.0,59.3,29.99,SSE,152,0.0,11.0,94,0.00,,,0.00,Weather View 32 v70,2013-11-01 01:19:00,
2013-10-31 21:24:00,60.8,59.1,29.98,SW,216,3.0,11.0,94,0.00,,,0.00,Weather View 32 v70,2013-11-01 01:24:00,
2013-10-31 21:29:00,60.7,59.3,29.98,WSW,246,2.0,11.0,95,0.00,,,0.00,Weather View 32 v70,2013-11-01 01:29:00,
2013-10-31 21:35:00,60.7,59.3,29.98,NNE,18,0.0,11.0,95,0.00,,,0.00,Weather View 32 v70,2013-11-01 01:35:00,
2013-10-31 21:40:00,60.7,59.5,29.98,NNW,336,0.0,11.0,96,0.00,,,0.00,Weather View 32 v70,2013-11-01 01:40:00,
2013-10-31 21:45:00,60.4,59.2,29.98,SW,220,4.0,11.0,96,0.00,,,0.00,Weather View 32 v70,2013-11-01 01:45:00,
2013-10-31 21:50:00,60.2,59.3,29.98,SSW,205,1.0,11.0,97,0.00,,,0.00,Weather View 32 v70,2013-11-01 01:50:00,
2013-10-31 21:55:00,60.2,59.6,29.99,SE,134,2.0,7.0,98,0.00,,,0.00,Weather View 32 v70,2013-11-01 01:55:00,
2013-10-31 22:00:00,60.1,59.5,29.98,SSW,203,2.0,7.0,98,0.00,,,0.01,Weather View 32 v70,2013-11-01 02:00:00,
2013-10-31 22:05:00,60.0,59.7,29.98,South,190,0.0,7.0,99,0.02,,,0.02,Weather View 32 v70,2013-11-01 02:05:00,
2013-10-31 22:10:00,59.9,59.9,29.97,WSW,237,0.0,7.0,100,0.03,,,0.03,Weather View 32 v70,2013-11-01 02:10:00,
2013-10-31 22:15:00,59.8,59.8,29.97,SSW,209,0.0,7.0,100,0.03,,,0.03,Weather View 32 v70,2013-11-01 02:15:00,
2013-10-31 22:20:00,59.9,59.9,29.97,NNE,25,3.0,7.0,100,0.03,,,0.03,Weather View 32 v70,2013-11-01 02:20:00,
2013-10-31 22:25:00,60.2,60.2,29.97,SW,220,0.0,7.0,100,0.03,,,0.03,Weather View 32 v70,2013-11-01 02:25:00,
2013-10-31 22:30:00,60.1,60.1,29.98,SE,129,2.0,7.0,100,0.03,,,0.03,Weather View 32 v70,2013-11-01 02:30:00,
2013-10-31 22:35:00,60.1,60.1,29.98,NE,39,0.0,7.0,100,0.04,,,0.04,Weather View 32 v70,2013-11-01 02:35:00,
2013-10-31 22:40:00,60.2,60.2,29.97,SSE,164,0.0,7.0,100,0.04,,,0.04,Weather View 32 v70,2013-11-01 02:40:00,
2013-10-31 22:45:00,60.1,60.1,29.96,SSW,198,0.0,7.0,100,0.04,,,0.04,Weather View 32 v70,2013-11-01 02:45:00,
2013-10-31 22:50:00,60.0,60.0,29.96,West,280,0.0,7.0,100,0.04,,,0.04,Weather View 32 v70,2013-11-01 02:50:00,
2013-10-31 22:55:00,59.9,59.9,29.97,WSW,246,2.0,8.0,100,0.05,,,0.05,Weather View 32 v70,2013-11-01 02:55:00,
2013-10-31 23:00:00,60.0,60.0,29.98,NE,39,0.0,8.0,100,0.04,,,0.05,Weather View 32 v70,2013-11-01 03:00:00,
2013-10-31 23:05:00,60.1,60.1,29.97,SW,229,0.0,8.0,100,0.03,,,0.05,Weather View 32 v70,2013-11-01 03:05:00,
2013-10-31 23:10:00,60.0,60.0,29.97,South,188,0.0,8.0,100,0.03,,,0.06,Weather View 32 v70,2013-11-01 03:10:00,
2013-10-31 23:15:00,60.1,60.1,29.97,WNW,301,0.0,8.0,100,0.03,,,0.06,Weather View 32 v70,2013-11-01 03:15:00,
2013-10-31 23:20:00,60.1,60.1,29.97,SSW,206,0.0,8.0,100,0.03,,,0.06,Weather View 32 v70,2013-11-01 03:20:00,
2013-10-31 23:25:00,59.9,59.9,29.95,SSE,151,6.0,8.0,100,0.03,,,0.06,Weather View 32 v70,2013-11-01 03:25:00,
2013-10-31 23:30:00,60.1,60.1,29.96,East,87,0.0,12.0,100,0.03,,,0.06,Weather View 32 v70,2013-11-01 03:30:00,
2013-10-31 23:35:00,60.2,60.2,29.95,SSE,155,0.0,12.0,100,0.02,,,0.06,Weather View 32 v70,2013-11-01 03:35:00,
2013-10-31 23:40:00,60.2,60.2,29.95,SSW,193,0.0,12.0,100,0.02,,,0.06,Weather View 32 v70,2013-11-01 03:40:00,
2013-10-31 23:45:00,60.1,60.1,29.95,East,83,0.0,12.0,100,0.02,,,0.06,Weather View 32 v70,2013-11-01 03:45:00,
2013-10-31 23:50:00,60.0,60.0,29.95,SSE,168,1.0,12.0,100,0.02,,,0.06,Weather View 32 v70,2013-11-01 03:50:00,
2013-10-31 23:55:00,60.1,60.1,29.94,WSW,253,0.0,12.0,100,0.01,,,0.06,Weather View 32 v70,2013-11-01 03:55:00,